"Period start","avg(HW err(1)/warn(2) (#))","avg(Visibility (m))","avg(Weather code (#))","avg(Precip intensity (mm/h))","min(HW err(1)/warn(2) (#))","max(HW err(1)/warn(2) (#))","std(HW err(1)/warn(2) (#))","med(HW err(1)/warn(2) (#))","min(Visibility (m))","max(Visibility (m))","std(Visibility (m))","med(Visibility (m))","min(Weather code (#))","max(Weather code (#))","std(Weather code (#))","med(Weather code (#))","min(Precip intensity (mm/h))","max(Precip intensity (mm/h))","std(Precip intensity (mm/h))","med(Precip intensity (mm/h))"
2013-08-24 00:00:00,2,49834,0,0.00,2,2,0,2,49063,50000,336,50000,0,0,0,0,0.00,0.00,0.00,0.00
2013-08-24 00:10:00,2,47470,0,0.00,2,2,0,2,37757,50000,3785,49198,0,0,0,0,0.00,0.00,0.00,0.00
2013-08-24 00:20:00,2,49709,0,0.00,2,2,0,2,47967,50000,637,50000,0,0,0,0,0.00,0.00,0.00,0.00
2013-08-24 00:30:00,2,49275,0,0.00,2,2,0,2,43358,50000,1981,50000,0,0,0,0,0.00,0.00,0.00,0.00
2013-08-24 00:40:00,2,50000,0,0.00,2,2,0,2,49999,50000,0,50000,0,0,0,0,0.00,0.00,0.00,0.00
2013-08-24 00:50:00,2,49274,0,0.00,2,2,0,2,43628,50000,1897,50000,0,0,0,0,0.00,0.00,0.00,0.00
2013-08-24 01:00:00,2,48730,0,0.00,2,2,0,2,45104,50000,1665,49784,0,0,0,0,0.00,0.00,0.00,0.00
2013-08-24 01:10:00,2,49731,0,0.00,2,2,0,2,48375,50000,553,50000,0,0,0,0,0.00,0.00,0.00,0.00
2013-08-24 01:20:00,2,48270,0,0.00,2,2,0,2,42884,50000,2742,50000,0,0,0,0,0.00,0.00,0.00,0.00
2013-08-24 01:30:00,2,47270,0,0.00,2,2,0,2,35498,50000,5032,50000,0,0,0,0,0.00,0.00,0.00,0.00
2013-08-24 01:40:00,2,48716,0,0.00,2,2,0,2,44985,50000,1909,50000,0,0,0,0,0.00,0.00,0.00,0.00
2013-08-24 01:50:00,2,50000,0,0.00,2,2,0,2,50000,50000,0,50000,0,0,0,0,0.00,0.00,0.00,0.00
2013-08-24 02:00:00,2,48815,0,0.00,2,2,0,2,46018,50000,1372,49330,0,0,0,0,0.00,0.00,0.00,0.00
2013-08-24 02:10:00,2,49994,0,0.00,2,2,0,2,49941,50000,18,50000,0,0,0,0,0.00,0.00,0.00,0.00
2013-08-24 02:20:00,2,47175,0,0.00,2,2,0,2,38957,50000,3487,48322,0,0,0,0,0.00,0.00,0.00,0.00
2013-08-24 02:30:00,2,48234,0,0.00,2,2,0,2,45067,50000,2062,49377,0,0,0,0,0.00,0.00,0.00,0.00
2013-08-24 02:40:00,2,49999,0,0.00,2,2,0,2,49992,50000,2,50000,0,0,0,0,0.00,0.00,0.00,0.00
2013-08-24 02:50:00,2,49974,0,0.00,2,2,0,2,49744,50000,77,50000,0,0,0,0,0.00,0.00,0.00,0.00
2013-08-24 03:00:00,2,49352,0,0.00,2,2,0,2,44624,50000,1600,50000,0,0,0,0,0.00,0.00,0.00,0.00
2013-08-24 03:10:00,2,49735,0,0.00,2,2,0,2,48153,50000,579,50000,0,0,0,0,0.00,0.00,0.00,0.00
2013-08-24 03:20:00,2,49937,0,0.00,2,2,0,2,49374,50000,188,50000,0,0,0,0,0.00,0.00,0.00,0.00
2013-08-24 03:30:00,2,49906,0,0.00,2,2,0,2,49056,50000,283,50000,0,0,0,0,0.00,0.00,0.00,0.00
2013-08-24 03:40:00,2,48677,0,0.00,2,2,0,2,43431,50000,2019,49680,0,0,0,0,0.00,0.00,0.00,0.00
2013-08-24 03:50:00,2,48917,0,0.00,2,2,0,2,43529,50000,1927,50000,0,0,0,0,0.00,0.00,0.00,0.00
2013-08-24 04:00:00,2,47316,0,0.00,2,2,0,2,42010,50000,2639,47980,0,0,0,0,0.00,0.00,0.00,0.00
2013-08-24 04:10:00,2,49963,0,0.00,2,2,0,2,49687,50000,94,50000,0,0,0,0,0.00,0.00,0.00,0.00
2013-08-24 04:20:00,2,48817,0,0.00,2,2,0,2,40228,50000,2899,50000,0,0,0,0,0.00,0.00,0.00,0.00
2013-08-24 04:30:00,2,45272,0,0.00,2,2,0,2,37691,50000,3720,45820,0,0,0,0,0.00,0.00,0.00,0.00
2013-08-24 04:40:00,2,48728,0,0.00,2,2,0,2,42684,50000,2227,50000,0,0,0,0,0.00,0.00,0.00,0.00
2013-08-24 04:50:00,2,43937,0,0.00,2,2,0,2,36125,50000,5085,43690,0,0,0,0,0.00,0.00,0.00,0.00
2013-08-24 05:00:00,2,47145,0,0.00,2,2,0,2,43783,50000,2626,47046,0,0,0,0,0.00,0.00,0.00,0.00
2013-08-24 05:10:00,2,48558,0,0.00,2,2,0,2,41716,50000,2640,50000,0,0,0,0,0.00,0.00,0.00,0.00
2013-08-24 05:20:00,2,48636,0,0.00,2,2,0,2,40556,50000,2860,50000,0,0,0,0,0.00,0.00,0.00,0.00
2013-08-24 05:30:00,2,49082,0,0.00,2,2,0,2,46925,50000,985,49502,0,0,0,0,0.00,0.00,0.00,0.00
2013-08-24 05:40:00,2,48583,0,0.00,2,2,0,2,41576,50000,2656,50000,0,0,0,0,0.00,0.00,0.00,0.00
2013-08-24 05:50:00,2,48364,0,0.00,2,2,0,2,39466,50000,3403,50000,0,0,0,0,0.00,0.00,0.00,0.00
2013-08-24 06:00:00,2,49154,0,0.00,2,2,0,2,44185,50000,1701,49882,0,0,0,0,0.00,0.00,0.00,0.00
2013-08-24 06:10:00,2,46886,0,0.00,2,2,0,2,42592,50000,2714,47494,0,0,0,0,0.00,0.00,0.00,0.00
2013-08-24 06:20:00,2,46783,0,0.00,2,2,0,2,35186,50000,4956,49776,0,0,0,0,0.00,0.00,0.00,0.00
2013-08-24 06:30:00,2,46795,0,0.00,2,2,0,2,37065,50000,4712,49396,0,0,0,0,0.00,0.00,0.00,0.00
2013-08-24 06:40:00,2,49230,0,0.00,2,2,0,2,44241,50000,1761,50000,0,0,0,0,0.00,0.00,0.00,0.00
2013-08-24 06:50:00,2,45249,0,0.00,2,2,0,2,38324,50000,4603,45610,0,0,0,0,0.00,0.00,0.00,0.00
2013-08-24 07:00:00,2,48998,0,0.00,2,2,0,2,43180,50000,2055,50000,0,0,0,0,0.00,0.00,0.00,0.00
2013-08-24 07:10:00,2,47278,0,0.00,2,2,0,2,39807,50000,3148,47956,0,0,0,0,0.00,0.00,0.00,0.00
2013-08-24 07:20:00,2,44330,0,0.00,2,2,0,2,36756,50000,4508,43426,0,0,0,0,0.00,0.00,0.00,0.00
2013-08-24 07:30:00,2,49326,0,0.00,2,2,0,2,44759,50000,1551,50000,0,0,0,0,0.00,0.00,0.00,0.00
2013-08-24 07:40:00,2,48756,0,0.00,2,2,0,2,44167,50000,1774,49707,0,0,0,0,0.00,0.00,0.00,0.00
2013-08-24 07:50:00,2,49466,0,0.00,2,2,0,2,44659,50000,1602,50000,0,0,0,0,0.00,0.00,0.00,0.00
2013-08-24 08:00:00,2,48169,0,0.00,2,2,0,2,43350,50000,2267,48804,0,0,0,0,0.00,0.00,0.00,0.00
2013-08-24 08:10:00,2,49122,0,0.00,2,2,0,2,46507,50000,1256,50000,0,0,0,0,0.00,0.00,0.00,0.00
2013-08-24 08:20:00,2,48929,0,0.00,2,2,0,2,41231,50000,2631,50000,0,0,0,0,0.00,0.00,0.00,0.00
2013-08-24 08:30:00,2,47965,0,0.00,2,2,0,2,44119,50000,2360,49404,0,0,0,0,0.00,0.00,0.00,0.00
2013-08-24 08:40:00,2,48035,0,0.00,2,2,0,2,43886,50000,2255,48962,0,0,0,0,0.00,0.00,0.00,0.00
2013-08-24 08:50:00,2,48216,0,0.00,2,2,0,2,43892,50000,2076,49288,0,0,0,0,0.00,0.00,0.00,0.00
2013-08-24 09:00:00,2,49054,0,0.00,2,2,0,2,46329,50000,1465,50000,0,0,0,0,0.00,0.00,0.00,0.00
2013-08-24 09:10:00,2,49560,0,0.00,2,2,0,2,45708,50000,1284,50000,0,0,0,0,0.00,0.00,0.00,0.00
2013-08-24 09:20:00,2,49631,0,0.00,2,2,0,2,46310,50000,1107,50000,0,0,0,0,0.00,0.00,0.00,0.00
2013-08-24 09:30:00,2,47505,0,0.00,2,2,0,2,40180,50000,3393,48519,0,0,0,0,0.00,0.00,0.00,0.00
2013-08-24 09:40:00,2,49483,0,0.00,2,2,0,2,47234,50000,843,50000,0,0,0,0,0.00,0.00,0.00,0.00
2013-08-24 09:50:00,2,48456,0,0.00,2,2,0,2,45466,50000,1859,49402,0,0,0,0,0.00,0.00,0.00,0.00
2013-08-24 10:00:00,2,49978,0,0.00,2,2,0,2,49778,50000,67,50000,0,0,0,0,0.00,0.00,0.00,0.00
2013-08-24 10:10:00,2,50000,0,0.00,2,2,0,2,50000,50000,0,50000,0,0,0,0,0.00,0.00,0.00,0.00
2013-08-24 10:20:00,2,49980,0,0.00,2,2,0,2,49801,50000,60,50000,0,0,0,0,0.00,0.00,0.00,0.00
2013-08-24 10:30:00,2,49702,0,0.00,2,2,0,2,48441,50000,597,50000,0,0,0,0,0.00,0.00,0.00,0.00
2013-08-24 10:40:00,2,50000,0,0.00,2,2,0,2,50000,50000,0,50000,0,0,0,0,0.00,0.00,0.00,0.00
2013-08-24 10:50:00,2,50000,0,0.00,2,2,0,2,50000,50000,0,50000,0,0,0,0,0.00,0.00,0.00,0.00
2013-08-24 11:00:00,2,50000,0,0.00,2,2,0,2,50000,50000,0,50000,0,0,0,0,0.00,0.00,0.00,0.00
2013-08-24 11:10:00,2,50000,0,0.00,2,2,0,2,50000,50000,0,50000,0,0,0,0,0.00,0.00,0.00,0.00
2013-08-24 11:20:00,2,50000,0,0.00,2,2,0,2,50000,50000,0,50000,0,0,0,0,0.00,0.00,0.00,0.00
2013-08-24 11:30:00,2,50000,0,0.00,2,2,0,2,50000,50000,0,50000,0,0,0,0,0.00,0.00,0.00,0.00
2013-08-24 11:40:00,2,50000,0,0.00,2,2,0,2,50000,50000,0,50000,0,0,0,0,0.00,0.00,0.00,0.00
2013-08-24 11:50:00,2,50000,0,0.00,2,2,0,2,50000,50000,0,50000,0,0,0,0,0.00,0.00,0.00,0.00
2013-08-24 12:00:00,2,50000,0,0.00,2,2,0,2,50000,50000,0,50000,0,0,0,0,0.00,0.00,0.00,0.00
2013-08-24 12:10:00,2,50000,0,0.00,2,2,0,2,50000,50000,0,50000,0,0,0,0,0.00,0.00,0.00,0.00
2013-08-24 12:20:00,2,50000,0,0.00,2,2,0,2,50000,50000,0,50000,0,0,0,0,0.00,0.00,0.00,0.00
2013-08-24 12:30:00,2,50000,0,0.00,2,2,0,2,50000,50000,0,50000,0,0,0,0,0.00,0.00,0.00,0.00
2013-08-24 12:40:00,2,50000,0,0.00,2,2,0,2,50000,50000,0,50000,0,0,0,0,0.00,0.00,0.00,0.00
2013-08-24 12:50:00,2,50000,0,0.00,2,2,0,2,50000,50000,0,50000,0,0,0,0,0.00,0.00,0.00,0.00
2013-08-24 13:00:00,2,50000,0,0.00,2,2,0,2,50000,50000,0,50000,0,0,0,0,0.00,0.00,0.00,0.00
2013-08-24 13:10:00,2,50000,0,0.00,2,2,0,2,50000,50000,0,50000,0,0,0,0,0.00,0.00,0.00,0.00
2013-08-24 13:20:00,2,50000,0,0.00,2,2,0,2,50000,50000,0,50000,0,0,0,0,0.00,0.00,0.00,0.00
2013-08-24 13:30:00,2,50000,0,0.00,2,2,0,2,50000,50000,0,50000,0,0,0,0,0.00,0.00,0.00,0.00
2013-08-24 13:40:00,2,50000,0,0.00,2,2,0,2,50000,50000,0,50000,0,0,0,0,0.00,0.00,0.00,0.00
2013-08-24 13:50:00,2,50000,0,0.00,2,2,0,2,50000,50000,0,50000,0,0,0,0,0.00,0.00,0.00,0.00
2013-08-24 14:00:00,2,50000,0,0.00,2,2,0,2,50000,50000,0,50000,0,0,0,0,0.00,0.00,0.00,0.00
2013-08-24 14:10:00,2,50000,0,0.00,2,2,0,2,50000,50000,0,50000,0,0,0,0,0.00,0.00,0.00,0.00
2013-08-24 14:20:00,2,50000,0,0.00,2,2,0,2,50000,50000,0,50000,0,0,0,0,0.00,0.00,0.00,0.00
2013-08-24 14:30:00,2,50000,0,0.00,2,2,0,2,50000,50000,0,50000,0,0,0,0,0.00,0.00,0.00,0.00
2013-08-24 14:40:00,2,50000,0,0.00,2,2,0,2,50000,50000,0,50000,0,0,0,0,0.00,0.00,0.00,0.00
2013-08-24 14:50:00,2,50000,0,0.00,2,2,0,2,50000,50000,0,50000,0,0,0,0,0.00,0.00,0.00,0.00
2013-08-24 15:00:00,2,50000,0,0.00,2,2,0,2,50000,50000,0,50000,0,0,0,0,0.00,0.00,0.00,0.00
2013-08-24 15:10:00,2,50000,0,0.00,2,2,0,2,50000,50000,0,50000,0,0,0,0,0.00,0.00,0.00,0.00
2013-08-24 15:20:00,2,50000,0,0.00,2,2,0,2,50000,50000,0,50000,0,0,0,0,0.00,0.00,0.00,0.00
2013-08-24 15:30:00,2,50000,0,0.00,2,2,0,2,50000,50000,0,50000,0,0,0,0,0.00,0.00,0.00,0.00
2013-08-24 15:40:00,2,50000,0,0.00,2,2,0,2,50000,50000,0,50000,0,0,0,0,0.00,0.00,0.00,0.00
2013-08-24 15:50:00,2,50000,0,0.00,2,2,0,2,50000,50000,0,50000,0,0,0,0,0.00,0.00,0.00,0.00
2013-08-24 16:00:00,2,50000,0,0.00,2,2,0,2,50000,50000,0,50000,0,0,0,0,0.00,0.00,0.00,0.00
2013-08-24 16:10:00,2,50000,0,0.00,2,2,0,2,50000,50000,0,50000,0,0,0,0,0.00,0.00,0.00,0.00
2013-08-24 16:20:00,2,50000,0,0.00,2,2,0,2,50000,50000,0,50000,0,0,0,0,0.00,0.00,0.00,0.00
2013-08-24 16:30:00,2,50000,0,0.00,2,2,0,2,50000,50000,0,50000,0,0,0,0,0.00,0.00,0.00,0.00
2013-08-24 16:40:00,2,50000,0,0.00,2,2,0,2,50000,50000,0,50000,0,0,0,0,0.00,0.00,0.00,0.00
2013-08-24 16:50:00,2,50000,0,0.00,2,2,0,2,50000,50000,0,50000,0,0,0,0,0.00,0.00,0.00,0.00
2013-08-24 17:00:00,2,50000,0,0.00,2,2,0,2,50000,50000,0,50000,0,0,0,0,0.00,0.00,0.00,0.00
2013-08-24 17:10:00,2,50000,0,0.00,2,2,0,2,50000,50000,0,50000,0,0,0,0,0.00,0.00,0.00,0.00
2013-08-24 17:20:00,2,50000,0,0.00,2,2,0,2,50000,50000,0,50000,0,0,0,0,0.00,0.00,0.00,0.00
2013-08-24 17:30:00,2,50000,0,0.00,2,2,0,2,50000,50000,0,50000,0,0,0,0,0.00,0.00,0.00,0.00
2013-08-24 17:40:00,2,50000,0,0.00,2,2,0,2,50000,50000,0,50000,0,0,0,0,0.00,0.00,0.00,0.00
2013-08-24 17:50:00,2,50000,0,0.00,2,2,0,2,50000,50000,0,50000,0,0,0,0,0.00,0.00,0.00,0.00
2013-08-24 18:00:00,2,50000,0,0.00,2,2,0,2,50000,50000,0,50000,0,0,0,0,0.00,0.00,0.00,0.00
2013-08-24 18:10:00,2,50000,0,0.00,2,2,0,2,50000,50000,0,50000,0,0,0,0,0.00,0.00,0.00,0.00
2013-08-24 18:20:00,2,50000,0,0.00,2,2,0,2,50000,50000,0,50000,0,0,0,0,0.00,0.00,0.00,0.00
2013-08-24 18:30:00,2,50000,0,0.00,2,2,0,2,50000,50000,0,50000,0,0,0,0,0.00,0.00,0.00,0.00
2013-08-24 18:40:00,2,50000,0,0.00,2,2,0,2,50000,50000,0,50000,0,0,0,0,0.00,0.00,0.00,0.00
2013-08-24 18:50:00,2,50000,0,0.00,2,2,0,2,50000,50000,0,50000,0,0,0,0,0.00,0.00,0.00,0.00
2013-08-24 19:00:00,2,50000,0,0.00,2,2,0,2,50000,50000,0,50000,0,0,0,0,0.00,0.00,0.00,0.00
2013-08-24 19:10:00,2,50000,0,0.00,2,2,0,2,50000,50000,0,50000,0,0,0,0,0.00,0.00,0.00,0.00
2013-08-24 19:20:00,2,50000,0,0.00,2,2,0,2,50000,50000,0,50000,0,0,0,0,0.00,0.00,0.00,0.00
2013-08-24 19:30:00,2,50000,0,0.00,2,2,0,2,50000,50000,0,50000,0,0,0,0,0.00,0.00,0.00,0.00
2013-08-24 19:40:00,2,50000,0,0.00,2,2,0,2,50000,50000,0,50000,0,0,0,0,0.00,0.00,0.00,0.00
2013-08-24 19:50:00,2,50000,0,0.00,2,2,0,2,50000,50000,0,50000,0,0,0,0,0.00,0.00,0.00,0.00
2013-08-24 20:00:00,2,50000,0,0.00,2,2,0,2,50000,50000,0,50000,0,0,0,0,0.00,0.00,0.00,0.00
2013-08-24 20:10:00,2,50000,0,0.00,2,2,0,2,50000,50000,0,50000,0,0,0,0,0.00,0.00,0.00,0.00
2013-08-24 20:20:00,2,50000,0,0.00,2,2,0,2,50000,50000,0,50000,0,0,0,0,0.00,0.00,0.00,0.00
2013-08-24 20:30:00,2,50000,0,0.00,2,2,0,2,50000,50000,0,50000,0,0,0,0,0.00,0.00,0.00,0.00
2013-08-24 20:40:00,2,50000,0,0.00,2,2,0,2,50000,50000,0,50000,0,0,0,0,0.00,0.00,0.00,0.00
2013-08-24 20:50:00,2,49629,0,0.00,2,2,0,2,46287,50000,1114,50000,0,0,0,0,0.00,0.00,0.00,0.00
2013-08-24 21:00:00,2,49919,0,0.00,2,2,0,2,49187,50000,244,50000,0,0,0,0,0.00,0.00,0.00,0.00
2013-08-24 21:10:00,2,50000,0,0.00,2,2,0,2,50000,50000,0,50000,0,0,0,0,0.00,0.00,0.00,0.00
2013-08-24 21:20:00,2,49810,0,0.00,2,2,0,2,48903,50000,369,50000,0,0,0,0,0.00,0.00,0.00,0.00
2013-08-24 21:30:00,2,49680,0,0.00,2,2,0,2,46865,50000,938,50000,0,0,0,0,0.00,0.00,0.00,0.00
2013-08-24 21:40:00,2,49855,0,0.00,2,2,0,2,48807,50000,358,50000,0,0,0,0,0.00,0.00,0.00,0.00
2013-08-24 21:50:00,2,50000,0,0.00,2,2,0,2,50000,50000,0,50000,0,0,0,0,0.00,0.00,0.00,0.00
2013-08-24 22:00:00,2,49948,0,0.00,2,2,0,2,49481,50000,156,50000,0,0,0,0,0.00,0.00,0.00,0.00
2013-08-24 22:10:00,2,50000,0,0.00,2,2,0,2,50000,50000,0,50000,0,0,0,0,0.00,0.00,0.00,0.00
2013-08-24 22:20:00,2,49908,0,0.00,2,2,0,2,49204,50000,238,50000,0,0,0,0,0.00,0.00,0.00,0.00
2013-08-24 22:30:00,2,50000,0,0.00,2,2,0,2,50000,50000,0,50000,0,0,0,0,0.00,0.00,0.00,0.00
2013-08-24 22:40:00,2,50000,0,0.00,2,2,0,2,50000,50000,0,50000,0,0,0,0,0.00,0.00,0.00,0.00
2013-08-24 22:50:00,2,49990,0,0.00,2,2,0,2,49904,50000,29,50000,0,0,0,0,0.00,0.00,0.00,0.00
2013-08-24 23:00:00,2,49603,0,0.00,2,2,0,2,47732,50000,709,50000,0,0,0,0,0.00,0.00,0.00,0.00
2013-08-24 23:10:00,2,49828,0,0.00,2,2,0,2,48716,50000,383,50000,0,0,0,0,0.00,0.00,0.00,0.00
2013-08-24 23:20:00,2,49829,0,0.00,2,2,0,2,49123,50000,342,50000,0,0,0,0,0.00,0.00,0.00,0.00
2013-08-24 23:30:00,2,49041,0,0.00,2,2,0,2,44407,50000,1731,50000,0,0,0,0,0.00,0.00,0.00,0.00
2013-08-24 23:40:00,2,50000,0,0.00,2,2,0,2,50000,50000,0,50000,0,0,0,0,0.00,0.00,0.00,0.00
2013-08-24 23:50:00,2,49875,0,0.00,2,2,0,2,48752,50000,374,50000,0,0,0,0,0.00,0.00,0.00,0.00
